Weather in Puksoozero

Russia / Arkhangel'skaya Oblast'     62°35′24″N   40°36′26″E
temp.,
°C
wind,
m/s
gust,
m/s
humid.,
%
clouds,
%
prec.,
mm/h
press.,
hPa
HPBL,
m
18 may, tue
tue1800:00+12ese3108194 0.0 1018184
03:00+11ese31182100 0.0 1017229
06:00+14se41273100 0.0 1017415
09:00+19se51264100 0.0 1016701
12:00+22se595416 0.0 1015984
15:00+25sse510509 0.0 10141344
18:00+24sse510550 0.0 10121128
21:00+20sse414715 0.0 1012561
19 may, wed
wed1900:00+18sse415825 0.0 1013457
03:00+17sse4139137 0.0 1013352
06:00+18sse41184100 0.0 1013363
09:00+23s596012 0.0 1012617
12:00+27s58405 0.0 10121424
15:00+29sse49304 0.0 10113573
18:00+27sse49344 0.0 10111073
21:00+20sse314600 0.0 1011379
20 may, thu
thu2000:00+20sse515690 0.0 1011552
03:00+17sse412805 0.0 1011389
06:00+19sse411755 0.0 1011362
09:00+22s5958100 0.1 1010683
12:00+26sse58430 0.0 10091327
15:00+29sse58323 0.0 10082995
18:00+27sse59370 0.0 10071685
21:00+22sse513485 0.0 1006711
21 may, fri
fri2100:00+18sse414634 0.0 1006595
03:00+16se310795 0.0 1006335
06:00+18sse410765 0.0 1004564
09:00+19sse5967100 0.1 10031116
12:00+18sse51077100 2.1 1002914
15:00+19s5962100 3.5 10021397
18:00+15wsw5979100 1.9 1003984
21:00+11wsw4117411 1.9 10051018
22 may, sat
sat2200:00+10sw412765 0.0 1006857
03:00+8sw413790 0.0 1008606
06:00+10sw511694 0.0 1009982
09:00+13sw6114650 0.0 10102029
12:00+15wsw7103995 0.0 10102567
15:00+16wsw611375 0.0 10112509
18:00+15wsw6114771 0.0 10122213
21:00+11sw396597 0.0 1014347